sat.trackr.live / text

‹ back to catalog

STARLINK-4325

NORAD 53068 · 2022-077AB

PAYLOAD ACTIVE UNKNOWN

§ Identity

Operator
Country
US
Launch date
2022-07-11
Launch site
AFWTR
Launch vehicle
Mass (kg)
RCS (m²)

Purposes: comms

External: N2YO · Heavens-Above · Gunter

§ Orbital elements

Epoch: 2026-09-19T22:46:29.853696Z

Period
93.91 min
Inclination
97.2847°
Eccentricity
0.0001578
Mean motion
15.33434240 rev/d
Perigee alt
464.5 km
Apogee alt
466.7 km
Semi-major
6,843.7 km
B*
2.0583e-6
RAAN
78.6267°
Arg perigee
91.1026°
Mean anomaly
269.0397°
Rev number
23,026

§ Raw data

STARLINK-43251 53068U 22077AB  26262.94895664 -.00000009  00000+0  20583-5 0  99912 53068  97.2847  78.6267 0001578  91.1026 269.0397 15.33434240230265

JSON: /api/v1/satellites/53068 · /tle

For live sub-satellite position, see the globe view (requires WebGL).

§ Visibility from observer

Set your observer location to see the next 7 days of passes ≥ 10°. The values pass through the URL so the page stays shareable.

No JS? Fill the form by hand. The geolocation button needs JavaScript.